CZ-6A DEB

Satellite information

Favourite Embed

Satellite Type and Status

DEBRISIN ORBIT

Key statistics

Satellite CZ-6A DEB at a glance.

Uptime

1128

Days in orbit

Revolutions

≈ 14.2

Per day

Orbit

SSO

Sun Synchronous Orbit

Inclination

98.8

Latest

Satellite identification and parameters

Extended collection of information and parameters for CZ-6A DEB.

Object identification

Identified? True

Debris? True

Object name: CZ-6A DEB

International designator: 2022-151US

Object number (NORAD): 55002

Object ID (CCSDS): 55002

Country: PEOPLES REPUBLIC OF CHINA (PRC)

Current information (Y/N): Y

RCS size: SMALL

Orbital parameters

Period: 101.612 minutes

Inclination: 98.7953 deg

SMA: 7213.147 km

Apoapsis: 856.395 km

Periapsis: 813.628 km

RAAN: 350.0 deg

Eccentricy: 0.0029645

Argument of periapsis: 137.1095 deg

Mean anomaly: 223.2399 deg

Mean motion: 14.17149329 rev/day

Mean motion (dot): 0.0000223 rev/day2

B* drag term: 0.0011233 1/REarth

Two-line elements (TLE)

Creation date: Dec. 12, 2025, 7:26 a.m.

Reference frame: TEME

Reference center: EARTH

Epoch: Dec. 12, 2025, 12:03 a.m. UTC

TLE line 0: 0 CZ-6A DEB

TLE line 1: 1 55002U 22151US 25346.00270913 .00002230 00000-0 11233-2 0 9994

TLE line 2: 2 55002 98.7953 350.0000 0029645 137.1095 223.2399 14.17149329157942

Live tracking on map

Real-time ground track for satellite CZ-6A DEB.

In-orbit conjunctions

A list of the most updated potential collisions computed for object CZ-6A DEB.

Target Orbit TCA Probability of collision Miss distance Type
SL-16 R/B LEO 2025-03-10 21:58:21 0.0001003003 376.0 (m) ROCKET BODY
FENGYUN 1C DEB SSO 2024-11-17 17:03:01 0.0001647507 112.0 (m) DEBRIS
SOLRAD 1 (GREB) LEO 2024-10-09 04:50:52 0.0002598775 118.0 (m) PAYLOAD

Associated space launch

Chinese satellite reported for atmospheric/ocean/environmental/spatial parameter research purposes, details TBD.

CZ-6A DEB was lifted into orbit during the mission ‘Long March 6A | Yunhai 3’, on board a Long March 6A space rocket.

The launch took place on Nov. 11, 2022, 10:52 p.m. from Launch Complex 9A.

For more information about the launch, click the button.

Launch to space Long March 6A | Yunhai 3
Long March 6A | Yunhai 3

Agency: N/A

Status: Launch Successful

Launch date: Nov. 11, 2022, 10:52 p.m. UTC

Rocket: Long March 6A

Launch pad: Launch Complex 9A

Location: Taiyuan Satellite Launch Center, People's Republic of China

...

Latest news about this satellite

There are no fresh news available about this satellite. Check back as we update our databases every day.


Newsletter sign-up

Weekly statistics, charts and insights to help you stay on top of the space industry.